OneWeb SL0592

operational
NORAD ID: 54658 Int'l Des: 2022-166 Owner: ONEWEBN Country: UK Constellation: oneweb
LEOCIRCULARPOLARONEWEB_TYPE

About OneWeb SL0592

Description loading...

Live Position

Loading 3D Globe...

Upcoming Passes

Altitude History

Altitude vs Time

uPlot chart will show altitude changes over time

Two-Line Element Set

1 54658U 22166S 26066.04640211 .00000083 00000-0 16983-3 0 9994
2 54658 87.9172 264.3259 0001552 89.2670 270.8642 13.21827629157946
Epoch: Mar 7, 2026 • Age: 15 hours

Current Status

Altitude 1201.7 km
Velocity 7.25 km/s
Sub-Earth Point -59.33°S, 134.87°W
Launch Date Dec 8, 2022
Age 3.2 years
Type internet

Technical Details

Classification Payload
Mass 148.00 kg
Dry Mass 140.00 kg
Total Mass 148.00 kg
Length 1.30 m
Diameter 1.00 m
Span 5.00 m
Shape Trapezoid+2 pan
Manufacturer ONEWUS
Bus Type ARROW
Phase Status In Orbit
Owner/State ONEWEBN/UK

Large Constellations

Loading constellations...